FREGAT R/B, 41551

Orbit data source: Space-Track

FREGAT R/B, 41551 is space debris originally from a launch on Tue, 24 May 2016 UTC launched from the French Guiana (FRGUI). Debris objects in space refer to the collection of defunct objects orbiting the Earth. Examples of debris include non-operational satellites, rocket bodies, and fragments generated from explosions, collisions, or faulty payload assembly.

Loading next visibility...
Identifier
41551, 2016-030C
Orbit
Active
Last TLE update
2 days ago
Origin
Manufacturer
Lavochkin
Mission
Spacecraft
Bus & Motor
FREGAT, Unknown motor
Mass
1,050 kg wet, 1,050 kg dry
Launch date (UTC)
2016-05-24 (9 years ago)
Launch vehicle
Unknown
Launch site
French Guiana (FRGUI)
Object type
Payload
Rocket body
Debris
Shape & HBR
Irr, 3.3 m
Radar Cross Section
11.055 m², Large (>1 m²)

Expand to show TLE details & history

TLE from 2 days ago
0 FREGAT R/B
1 41551U 16030C   25127.38686534 -.00000042  00000-0  00000-0 0  9993
2 41551  55.1275 235.8577 0021567 230.4078 129.3930  1.67598286 54823
Epoch: 2025-05-07T09:17Z
Definitive object data (Epoch: 2025-05-07T09:17:05.165Z)
Latitude
0.00004°
Longitude
-128.90143°
Altitude
23,601.156 km
Speed
3.644 km/s
True Right ascension
15h 43m 22s
True Declination
0° 00' 00"
Sunlit
Object was in daylight at TLE epoch
Visualization TLE readout
Latitude
24.75615°
Longitude
-110.25598°
Altitude
23,621.277 km
Speed
3.642 km/s
Apparent Right ascension
17h 33m 29s
Apparent Declination
19° 08' 48"
Sunlit
Object is in daylight
Visualization observer readout
Local Sidereal Time
13:36:39
Azimuth
94.142° ESE
Elevation
35.548°
Doppler factor
1
Orbital elements
Apogee altitude
23,624.389 km
Perigee altitude
23,495.255 km
Semi-major axis
29,937.959 km
Eccentricity
0.0021567
Inclination
55.1275°
RAAN
235.8577°
Arg. of periapsis
230.4078°
True anomaly
129.58367°
Mean anomaly
129.393°
Eccentric anomaly
129.48837°
Mean motion
0.419 °/min
BSTAR
Unknown
Orbital period
859.2 mins
Loading maneuver chart data...
Loading SW <> Apogee altitude chart data...
Loading historical data...
Loading historical data...
Loading historical data...
Loading historical data...
Loading historical data...
Loading historical data...
Loading historical data...
Other satellites on launch #30 in the year 2016 (2016-05-24 UTC)

FREGAT R/B Visibility forecast

Observer location: undefined°, undefined°

Span
Click to sort rows by Start time (UTC) header in descending order
Start Az.
Max El. time (UTC)
Max El. Az.
Max El.
End time (UTC)
End Az.
185 mins2025-05-09 05:27:59.265Z94.17° ESE2025-05-09 06:10:59.265Z74.73° E32.356°2025-05-09 08:32:59.265Z40.742° NE
|